User: anonymous   Login
Location: Arborea
(39.7744°N, 8.5819°E)
Time: 18:04:06
(UTC+00:00)
Language:

USA 229 - Orbit

View from above orbital plane
View from above orbital plane
View from above satellite
View from above satellite

Ground track
Ground track

The orbit data is extracted from the following two-line orbital elements,

1 37386U 11014A   22014.23810357 0.00000000  00000-0  00000-0 0    05
2 37386  63.4347  79.9671 0216611 357.8920   2.1079 13.40832463    09
Epoch (UTC): 14 January 2022 05:42:52
Eccentricity: 0.0216611
inclination: 63.4347°
perigee height: 944 km
apogee height: 1268 km
right ascension of ascending node: 79.9671°
argument of perigee: 357.8920°
revolutions per day: 13.40832463
mean anomaly at epoch: 2.1079°
orbit number at epoch: 0

The dashed part of the orbit path shows where the satellite is in the earth's shadow,  

DLR